This demonstration page uses our WeatherBlox Daily Observations layout. Learn more.

Left ArrowRight Arrow

34.74481, -87.66753

Hourly Observations for December 16, 2017

Temp ( °F °C ) Dew Point ( °F °C ) Humidity (%) Winds ( mph kmh ) Pressure ( in mb ) Visibility ( mi km ) Precip ( " mm )
12:53 am 00:53 Clear 25 -3.9 21 -6.1 85 85 SSE 5 7 30.26 1025 10 16 0.00 0.00
1:53 am 01:53 Clear 26 -3.3 22 -5.6 84 84 Calm 30.27 1025 10 16 0.00 0.00
2:53 am 02:53 Clear 25 -3.9 21 -6.1 85 85 Calm 30.27 1025 10 16 0.00 0.00
3:53 am 03:53 Clear 23 -5 20 -6.7 88 88 SSE 5 7 30.27 1025 10 16 0.00 0.00
4:53 am 04:53 Clear 23 -5 19 -7.2 85 85 ESE 3 6 30.27 1025 10 16 0.00 0.00
5:53 am 05:53 Clear 24 -4.4 20 -6.7 84 84 SE 5 7 30.28 1025 10 16 0.00 0.00
6:53 am 06:53 Sunny 24 -4.4 20 -6.7 84 84 ESE 3 6 30.30 1026 10 16 0.00 0.00
7:53 am 07:53 Sunny 30 -1.1 25 -3.9 82 82 SE 3 6 30.31 1026 10 16 0.00 0.00
8:53 am 08:53 Sunny 37 2.8 28 -2.2 70 70 S 6 9 30.32 1027 10 16 0.00 0.00
9:53 am 09:53 Sunny 44 6.7 29 -1.7 55 55 SSW 7 11 30.32 1027 10 16 0.00 0.00
10:53 am 10:53 Sunny 49 9.4 28 -2.2 44 44 SW 7 11 30.30 1026 10 16 0.00 0.00
11:53 am 11:53 Sunny 51 10.6 28 -2.2 41 41 SSW 9 15 30.27 1025 10 16 0.00 0.00
12:53 pm 12:53 Sunny 52 11.1 28 -2.2 40 40 SW 9 15 30.24 1024 10 16 0.00 0.00
1:53 pm 13:53 Sunny 53 11.7 28 -2.2 38 38 SSW 9 15 30.22 1024 10 16 0.00 0.00
2:53 pm 14:53 Sunny 53 11.7 27 -2.8 37 37 SSW 9 15 30.22 1023 10 16 0.00 0.00
3:53 pm 15:53 Sunny 52 11.1 27 -2.8 38 38 S 7 11 30.22 1024 10 16 0.00 0.00
4:53 pm 16:53 Clear 47 8.3 28 -2.2 48 48 S 6 9 30.23 1024 10 16 0.00 0.00
5:53 pm 17:53 Clear 44 6.7 27 -2.8 51 51 S 5 7 30.22 1024 10 16 0.00 0.00
6:53 pm 18:53 Clear 41 5 28 -2.2 60 60 SSE 6 9 30.24 1024 10 16 0.00 0.00
7:53 pm 19:53 Clear 42 5.6 28 -2.2 58 58 SE 5 7 30.25 1024 10 16 0.00 0.00
8:53 pm 20:53 Clear 39 3.9 28 -2.2 65 65 ESE 5 7 30.26 1025 10 16 0.00 0.00
9:53 pm 21:53 Clear 38 3.3 27 -2.8 65 65 SE 3 6 30.27 1025 10 16 0.00 0.00
10:53 pm 22:53 Clear 39 3.9 28 -2.2 65 65 SE 3 6 30.25 1025 10 16 0.00 0.00
11:53 pm 23:53 Clear 35 1.7 29 -1.7 78 78 ESE 5 7 30.23 1024 10 16 0.00 0.00

Powered by AerisWeather